This is the latest recevied weather packets stored in our database for station/object K7SPS-10. If no packets are shown the sender has not sent any weather packets the latest 10 day(s).
| Time | Temp. | Humidity | Pressure | Rain* | Wind** | Luminosity | Snow |
|---|---|---|---|---|---|---|---|
| 1777837884 | 25° C | 34% | 1012.4 hPa | 0 mm | - | 794 W/m² | - |
| 1777837581 | 25° C | 35% | 1012.3 hPa | 0 mm | - | 797 W/m² | - |
| 1777837276 | 24.44° C | 35% | 1012.5 hPa | 0 mm | - | 797 W/m² | - |
| 1777836973 | 24.44° C | 36% | 1012.8 hPa | 0 mm | - | 797 W/m² | - |
| 1777836668 | 23.89° C | 37% | 1012.9 hPa | 0 mm | - | 798 W/m² | - |
| 1777836364 | 23.89° C | 36% | 1013 hPa | 0 mm | - | 799 W/m² | - |
| 1777836060 | 23.89° C | 35% | 1013 hPa | 0 mm | - | 796 W/m² | - |
| 1777835757 | 23.33° C | 36% | 1013.1 hPa | 0 mm | - | 795 W/m² | - |
| 1777835454 | 23.33° C | 36% | 1013.1 hPa | 0 mm | - | 792 W/m² | - |
| 1777835151 | 23.33° C | 36% | 1013.2 hPa | 0 mm | - | 788 W/m² | - |
| 1777834848 | 23.33° C | 35% | 1013 hPa | 0 mm | - | 786 W/m² | - |
| 1777834545 | 22.78° C | 36% | 1013.4 hPa | 0 mm | - | 785 W/m² | - |
| 1777834244 | 22.78° C | 36% | 1013.3 hPa | 0 mm | - | 781 W/m² | - |
| 1777833941 | 22.78° C | 40% | 1013.4 hPa | 0 mm | - | 775 W/m² | - |
| 1777833637 | 22.22° C | 38% | 1013.5 hPa | 0 mm | - | 773 W/m² | - |
| 1777833334 | 22.22° C | 38% | 1013.5 hPa | 0 mm | - | 770 W/m² | - |
| 1777833031 | 22.22° C | 37% | 1013.6 hPa | 0 mm | - | 764 W/m² | - |
| 1777832730 | 22.22° C | 37% | 1013.7 hPa | 0 mm | - | 760 W/m² | - |
| 1777832427 | 21.67° C | 37% | 1013.7 hPa | 0 mm | - | 752 W/m² | - |
| 1777832124 | 22.22° C | 39% | 1013.9 hPa | 0 mm | - | 744 W/m² | - |
| 1777831820 | 21.11° C | 41% | 1013.8 hPa | 0 mm | - | 738 W/m² | - |
| 1777831518 | 21.67° C | 38% | 1013.9 hPa | 0 mm | - | 731 W/m² | - |
| 1777831215 | 20.56° C | 40% | 1013.9 hPa | 0 mm | - | 720 W/m² | - |
| 1777830912 | 20.56° C | 41% | 1014.2 hPa | 0 mm | - | 713 W/m² | - |
| 1777830609 | 20.56° C | 39% | 1014 hPa | 0 mm | - | 705 W/m² | - |
* Rain latest hour (hover to see other rain measurements)
** Current wind speed in m/s (hover to see current wind gust speed)